Location: Banksville Park
(38.5557°N, 75.1182°W)
Time: 03:48:59
(UTC+00:00)

ATLAS 3B R/B - Pass Details

Date: 19 September 2020
Orbit: 1016 x 1179 km, 63.8° (Epoch: 04 October)

Event Time Altitude Azimuth Distance (km) Brightness Sun altitude
Rises 00:54:59 0° 335° (NNW) 3,820 6.3 -22.2°
Reaches altitude 10° 00:58:55 10° 357° (N) 2,894 5.3 -22.9°
Maximum altitude 01:02:51 16° 32° (NNE) 2,526 4.5 -23.6°
Enters shadow 01:04:32 14° 49° (NE) 2,615 4.5 -24.0°
